Flag for India Weather past 2 weeks in Bhilwara, Rajasthan, India

Now
86 °F

Haze.


Feels Like: 95 °F
Forecast: 79 / 94 °F
Wind: 10 mph from West

Location: Jaipur / Sanganer

Current Time: Jul 1, 2015 at 10:49:41 AM

Latest Report: Jul 1, 2015 at 10:00 AM


Visibility: 2 mi

Pressure: 29.74 "Hg

Humidity: 70%

Dew point: 75 °F

Location of BhilwaraLocation

Historic Weather in Bhilwara — Graph

°F

Bhilwara temperature yesterday

Maximum temperature yesterday: 90 °F (at 1:00 PM)
Minimum temperature yesterday: 75 °F (at 8:00 PM)
Average temperature yesterday: 80 °F

Past Weeks' High & Low Weather Summary

 TemperatureHumidityPressure
High106 °F (Jun 19, 12:30 PM)100% (Jun 25, 3:00 AM)29.77 "Hg (Jun 25, 3:00 AM)
Low75 °F (Jun 29, 9:00 PM)20% (Jun 19, 5:00 PM)29.39 "Hg (Jun 22, 5:30 PM)
Average91 °F55%29.55 "Hg
* Reported Jun 16 9:00 AM — Jul 1 9:00 AM, Bhilwara, Weather by CustomWeather, © 2015

Note: Actual official high and low records may vary slightly from our data, if they occured in-between our weather recording intervals... More about our weather records

Advertising

Bhilwara weather history for previous 24 hours

 ConditionsComfort  
Time TempWeatherWind HumidityBarometerVisibility
9:00 AM
Wed, Jul 1
84 °FHaze.6 mph79%29.74 "Hg1 mi
8:00 AM81 °FFog.5 mph84%29.71 "Hg1 mi
7:00 AM79 °FFog.No wind94%29.71 "Hg1 mi
6:00 AM77 °FFog.No wind94%29.68 "Hg1 mi
5:30 AM77 °FFog.No wind94%29.65 "Hg1 mi
1:00 AM77 °FFog.5 mph94%29.71 "Hg1 mi
12:00 AM77 °FFog.5 mph94%29.71 "Hg1 mi
10:00 PM
Tue, Jun 30
77 °FPartly cloudy.No wind94%29.71 "Hg1 mi
8:00 PM75 °FPartly cloudy.1 mph100%29.71 "Hg1 mi
7:00 PM77 °FLight rain. Broken clouds.7 mph94%29.65 "Hg1 mi
6:00 PM77 °FRain. Broken clouds.7 mph89%29.71 "Hg1 mi
5:00 PM79 °FThunderstorms. Broken clouds.6 mph89%29.71 "Hg1 mi
4:30 PM79 °FThunderstorms. Broken clouds.7 mph89%29.71 "Hg1 mi
2:00 PM90 °FScattered clouds.5 mph67%29.68 "Hg2 mi
1:00 PM90 °FScattered clouds.5 mph67%29.71 "Hg2 mi
12:00 PM88 °FScattered clouds.8 mph70%29.74 "Hg2 mi
10:30 AM86 °FScattered clouds.3 mph70%29.74 "Hg1 mi
10:00 AM84 °FScattered clouds.5 mph74%29.74 "Hg1 mi
Weather by CustomWeather, © 2015

See weather overviewHow to use our weather pages